Location: Round Knob
(37.2473°N, 88.7376°W)
Time: 12:34:34
(UTC+00:00)

Cosmos 2227 Rocket - Pass Details

Date: 29 October 2020
Orbit: 838 x 846 km, 71.0° (Epoch: 04 December)

Event Time Altitude Azimuth Distance (km) Brightness Sun altitude
Rises 23:40:59 0° 343° (NNW) 3,404 5.4 -8.8°
Reaches altitude 10° 23:43:32 10° 349° (N) 2,467 4.6 -9.3°
Maximum altitude 23:49:00 49° 64° (ENE) 1,079 2.4 -10.4°
Drops below altitude 10° 23:54:27 10° 139° (SE) 2,457 4.3 -11.4°
Sets 23:56:58 0° 144° (SE) 3,389 5.1 -11.9°
